This is the latest recevied weather packets stored in our database for station/object SP2CDN-10. If no packets are shown the sender has not sent any weather packets the latest 10 day(s).
| Time | Temp. | Humidity | Pressure | Rain* | Wind** | Luminosity | Snow |
|---|---|---|---|---|---|---|---|
| 1777709621 | 21.11° C | 25% | 1022.5 hPa | - | - | - | - |
| 1777707340 | 19.44° C | 27% | 1022.6 hPa | - | - | - | - |
| 1777705058 | 18.33° C | 31% | 1022.6 hPa | - | - | - | - |
| 1777702777 | 15.56° C | 42% | 1022.8 hPa | - | - | - | - |
| 1777700495 | 13.89° C | 48% | 1022.6 hPa | - | - | - | - |
| 1777698212 | 10.56° C | 63% | 1022.6 hPa | - | - | - | - |
| 1777695931 | 8.33° C | 76% | 1022.7 hPa | - | - | - | - |
| 1777693649 | 6.67° C | 82% | 1022.7 hPa | - | - | - | - |
| 1777691367 | 6.67° C | 86% | 1022.9 hPa | - | - | - | - |
| 1777689086 | 6.67° C | 81% | 1022.9 hPa | - | - | - | - |
| 1777686804 | 6.67° C | 77% | 1022.8 hPa | - | - | - | - |
| 1777684523 | 7.22° C | 74% | 1022.9 hPa | - | - | - | - |
| 1777682241 | 7.78° C | 73% | 1023 hPa | - | - | - | - |
| 1777679959 | 8.33° C | 69% | 1023.2 hPa | - | - | - | - |
| 1777677678 | 8.89° C | 65% | 1023.2 hPa | - | - | - | - |
| 1777675396 | 9.44° C | 64% | 1023.3 hPa | - | - | - | - |
| 1777673115 | 10.56° C | 61% | 1023.4 hPa | - | - | - | - |
| 1777670832 | 11.11° C | 58% | 1023.4 hPa | - | - | - | - |
| 1777668551 | 12.78° C | 52% | 1023.4 hPa | - | - | - | - |
| 1777666270 | 13.33° C | 49% | 1023.1 hPa | - | - | - | - |
| 1777663988 | 15° C | 41% | 1023.2 hPa | - | - | - | - |
| 1777661707 | 17.22° C | 35% | 1023 hPa | - | - | - | - |
| 1777659425 | 18.33° C | 30% | 1022.8 hPa | - | - | - | - |
| 1777657143 | 21.67° C | 23% | 1022.7 hPa | - | - | - | - |
| 1777654862 | 29.44° C | 16% | 1022.8 hPa | - | - | - | - |
* Rain since midnight (hover to see other rain measurements)
** Current wind speed in m/s (hover to see current wind gust speed)